Weather Roundup
Issued by NWS Springfield, MO

Home | Current Version | Previous Version | Text Only | Print | Product List | Glossary On
Versions: 1 2 3 4 5 6 7 8 9 10 11 12 13 14 15 16 17 18 19 20 21 22 23 24 25 26 27 28 29 30 31 32 33 34 35 36 37 38 39 40 41 42 43 44 45 46 47 48 49 50
367
NZUS99 KSGF 231457
HRRSGF

HOURLY WEATHER
NATIONAL WEATHER SERVICE SPRINGFIELD MO
1000 AM CDT SAT SEP 23 2017

......SGF CWA......

CITY           SKY/WX    TMP DP  RH WIND       PRES   REMARKS
SPRINGFIELD    SUNNY     81  69  67 S7        30.08R
JOPLIN         SUNNY     81  71  71 S8        30.05R
WEST PLAINS    SUNNY     81  66  60 VRB3      30.11R
ROLLA          SUNNY     82  67  60 SW8       30.10R
BRANSON        SUNNY     82  66  57 CALM      30.09S

......SURROUNDING SGF CWA......

CITY           SKY/WX    TMP DP  RH WIND       PRES   REMARKS
CHANUTE        SUNNY     80  70  71 S13       30.04R
PARSONS        SUNNY     80  68  66 S10       30.04R
COFFEYVILLE    SUNNY     79  69  71 S8        30.02S
EMPORIA        SUNNY     77  66  68 S13       30.01R
HARRISON AR    SUNNY     81  67  62 SE5       30.09R

......KANSAS AND MISSOURI......

CITY           SKY/WX    TMP DP  RH WIND       PRES   REMARKS
KANSAS CTY INT MOSUNNY   80  70  71 S10       30.04R
SEDALIA        SUNNY     82  71  69 S7        30.08R
ST JOSEPH      SUNNY     82  69  64 S10       30.02R
ST LOUIS       SUNNY     84  67  56 CALM      30.09R
WICHITA        MOSUNNY   81  68  64 S20       29.98R
TOPEKA         SUNNY     81  69  67 S7        30.01R
OLATHE         SUNNY     78  70  76 S9        30.05R

......TENNESSEE......

CITY           SKY/WX    TMP DP  RH WIND       PRES   REMARKS
MEMPHIS        NOT AVBL
NASHVILLE      SUNNY     81  69  67 CALM      30.09R

......ARKANSAS.......

CITY           SKY/WX    TMP DP  RH WIND       PRES   REMARKS
FAYETTEVILLE   SUNNY     76  71  85 CALM      30.08R
FT SMITH       SUNNY     80  70  71 NE6       30.03R
LITTLE ROCK    SUNNY     83  72  69 E3        30.02R

......OKLAHOMA.......

CITY           SKY/WX    TMP DP  RH WIND       PRES   REMARKS
TULSA          SUNNY     81  69  67 S9        29.99S
PONCA CITY     SUNNY     79  66  64 VRB7      29.99R
MCALESTER      MOSUNNY   81  70  69 SE5       30.02R
OKLAHOMA CITY  MOSUNNY   77  68  73 S14       29.99S

......IOWA............

CITY           SKY/WX    TMP DP  RH WIND       PRES   REMARKS
DES MOINES     NOT AVBL
QUAD CITIES    SUNNY     82  66  58 SW3       30.07S

......ILLINOIS........

CITY           SKY/WX    TMP DP  RH WIND       PRES   REMARKS
QUINCY         SUNNY     83  66  56 CALM      30.08R
CHICAGO        SUNNY     85  65  51 S3        30.10S




USA.gov is the U.S. government's official web portal to all federal, state and local government web resources and services.